Location: Unspecified
(0.0000°N, 0.0000°E)
Time: 18:03:44
(UTC+00:00)

Explorer 27 - Pass Details

Date: 22 May 2026
Orbit: 932 x 1295 km, 41.2° (Epoch: 10 June)

Event Time Altitude Azimuth Distance (km) Brightness Sun altitude
Exits shadow 02:41:31 12° 19° (NNE) 2,488 10.5 -44.9°
Maximum altitude 02:43:36 14° 40° (NE) 2,346 10.5 -44.4°
Drops below altitude 10° 02:46:43 10° 71° (ENE) 2,625 10.8 -43.7°
Sets 02:50:42 0° 95° (E) 3,581 11.6 -42.8°
